This is the latest recevied weather packets stored in our database for station/object KB1ZFK. If no packets are shown the sender has not sent any weather packets the latest 10 day(s).
| Time | Temp. | Humidity | Pressure | Rain* | Wind** | Luminosity | Snow |
|---|---|---|---|---|---|---|---|
| 1788635005 | 21.67° C | 75% | 1010.7 hPa | 0 mm | - | 172 W/m² | - |
| 1788634704 | 21.67° C | 76% | 1010.4 hPa | 0 mm | - | 191 W/m² | - |
| 1788634399 | 21.67° C | 73% | 1010.5 hPa | 0 mm | - | 185 W/m² | - |
| 1788634098 | 21.67° C | 75% | 1010.5 hPa | 0 mm | - | 158 W/m² | - |
| 1788633798 | 21.67° C | 72% | 1010.6 hPa | 0 mm | - | 142 W/m² | - |
| 1788633496 | 22.22° C | 71% | 1010.8 hPa | 0 mm | - | 125 W/m² | - |
| 1788633192 | 22.78° C | 70% | 1010.3 hPa | 0 mm | - | 199 W/m² | - |
| 1788632886 | 22.78° C | 71% | 1010.4 hPa | 0 mm | - | 212 W/m² | - |
| 1788632586 | 22.78° C | 71% | 1010.3 hPa | 0 mm | - | 156 W/m² | - |
| 1788632281 | 23.33° C | 68% | 1010.7 hPa | 0 mm | - | 150 W/m² | - |
| 1788631981 | 22.78° C | 67% | 1010.4 hPa | 0 mm | - | 494 W/m² | - |
| 1788631674 | 22.22° C | 70% | 1010.5 hPa | 0 mm | - | 663 W/m² | - |
| 1788631370 | 22.22° C | 72% | 1010.6 hPa | 0 mm | - | 190 W/m² | - |
| 1788631064 | 21.67° C | 71% | 1010.6 hPa | 0 mm | - | 581 W/m² | - |
| 1788630759 | 21.67° C | 73% | 1010.5 hPa | 0 mm | - | 153 W/m² | - |
| 1788630454 | 22.22° C | 71% | 1010.5 hPa | 0 mm | - | 155 W/m² | - |
| 1788630150 | 22.78° C | 69% | 1010.2 hPa | 0 mm | - | 364 W/m² | - |
| 1788629846 | 22.78° C | 69% | 1010.4 hPa | 0 mm | - | 289 W/m² | - |
| 1788629559 | 22.78° C | 70% | 1010.4 hPa | 0 mm | - | 331 W/m² | - |
| 1788629241 | 22.22° C | 71% | 1010.6 hPa | 0 mm | - | 828 W/m² | - |
| 1788628935 | 22.22° C | 71% | 1010.4 hPa | 0 mm | - | 285 W/m² | - |
| 1788628631 | 22.78° C | 75% | 1010.5 hPa | 0 mm | - | 311 W/m² | - |
| 1788628327 | 22.78° C | 70% | 1010.2 hPa | 0 mm | - | 400 W/m² | - |
| 1788628024 | 22.78° C | 73% | 1010.5 hPa | 0 mm | - | 441 W/m² | - |
| 1788627724 | 22.78° C | 71% | 1010.3 hPa | 0 mm | - | 917 W/m² | - |
* Rain latest hour (hover to see other rain measurements)
** Current wind speed in m/s (hover to see current wind gust speed)